Volver al catálogo

FENGYUN 1C DEB

ActivoSSO
NORAD 31367·DEBRIS·🇨🇳 China

Lanzado May 10, 1999 desde Taiyuan Satellite Launch Center

Loading…

Próximos Pases (próximas 24 horas)

TLE

EnvejeciendoSource: Space-Track

Época: Sep 11, 2026, 05:05 UTC

1 31367U 99025BRX 26254.21217345  .00000905  00000-0  24102-3 0  9995
2 31367  98.7242 162.6104 0096097 275.1692 240.0232 14.48448033 23891

Sigue FENGYUN 1C DEB en tiempo real con AllMySat

Download on the App Store